Regional Weather Roundup
Issued by NWS Upton, NY

Current Version | Previous Version | Text Only | Print | Product List | Glossary On
Versions: 1 2 3 4 5 6 7 8 9 10 11 12 13 14 15 16 17 18 19 20 21 22 23 24 25 26 27 28 29 30 31 32 33 34 35 36 37 38 39 40 41 42 43 44 45 46 47 48 49 50
223
ASUS41 KOKX 221109
RWROKX

REGIONAL WEATHER ROUNDUP
NATIONAL WEATHER SERVICE NEW YORK NY
700 AM EDT MON MAY 22 2017

NOTE: "FAIR" INDICATES FEW OR NO CLOUDS BELOW 12,000 FEET WITH NO
SIGNIFICANT WEATHER AND/OR OBSTRUCTIONS TO VISIBILITY.

NYZ071-072-176-178-NJZ106-104-221200-
NEW YORK CITY METRO AREA

CITY           SKY/WX    TMP DP  RH WIND       PRES   REMARKS
Central Park   CLOUDY    54  52  93 SE6       30.19F
Wall St Helipt CLOUDY    55  50  82 SE6       30.17F
Bronx Bot Gard   N/A     52  50  93 E5        30.17R
LaGuardia APRT CLOUDY    60  50  69 E7        30.16F
Kennedy INTL   LGT RAIN  56  52  86 SE10      30.18S
Breezy Point     N/A     54 N/A N/A SE10        N/A
Newark/Liberty CLOUDY    56  50  80 SE5       30.16F
Teterboro      CLOUDY    56  51  84 SE6       30.15F
$$

NYZ177-179-078>081-221200-
LONG ISLAND NEW YORK

CITY           SKY/WX    TMP DP  RH WIND       PRES   REMARKS
Jones Beach      N/A     54 N/A N/A SE9         N/A
Matinecock PT  NOT AVBL
Farmingdale    LGT RAIN  55  50  83 SE8       30.18S
MacArthur/ISP  LGT RAIN  54  50  86 E6        30.19S
Shirley        CLOUDY    53  51  93 E3        30.20S
Mt Sinai Harb    N/A     50 N/A N/A SE1         N/A
Westhampton    LGT RAIN  53  48  83 SE6       30.21F
East Hampton   DRIZZLE   51  49  91 E5        30.20S
Montauk          N/A     53  49  86 CALM      30.23F
$$

NYZ052-065-067-221200-
HUDSON VALLEY

CITY           SKY/WX    TMP DP  RH WIND       PRES   REMARKS
White Plains   CLOUDY    52  48  86 E8        30.16F
Larchmont Harb   N/A     54 N/A N/A NE10        N/A
Croton O-T Hud   N/A     54 N/A N/A E2G8        N/A
Newburgh       CLOUDY    54  46  76 SE7       30.16F
Montgomery     CLOUDY    55  46  71 S6        30.14S
Poughkeepsie   CLOUDY    55  43  63 SE6       30.14F
Albany         CLOUDY    51  44  77 S3        30.12F
$$

NJZ001-105-106-008-010-013-015-019>022-104-221200-
NEW JERSEY

CITY           SKY/WX    TMP DP  RH WIND       PRES   REMARKS
Newark/Liberty CLOUDY    56  50  80 SE5       30.16F
Teterboro      CLOUDY    56  51  84 SE6       30.15F
Caldwell       CLOUDY    56  50  80 SE5       30.17S
Somerville     CLOUDY    54  52  93 CALM      30.14F
Linden         CLOUDY    56  50  81 S8        30.16F
Perth Amboy      N/A     55 N/A N/A SE12        N/A
Sussex         CLOUDY    55  46  71 VRB3      30.16R
Andover          N/A     53  47  79 VRB3      30.15S
Trenton        CLOUDY    55  53  93 E7        30.14F
Millville      HVY RAIN  56  56 100 NE6       30.12S FOG
Atlantic City  RAIN      58  55  90 E6        30.13S FOG
Wrightstown    CLOUDY    54  53  95 E8        30.12F
Toms River     LGT RAIN  54  53  97 E5        30.16S FOG
Belmar         LGT RAIN  53  52  96 E8        30.16F
$$

PAZ047>061-062-071-221200-
EASTERN PENNSYLVANIA

CITY           SKY/WX    TMP DP  RH WIND       PRES   REMARKS
Philadelphia   CLOUDY    56  53  90 E6        30.14S FOG
Allentown      CLOUDY    56  49  77 SE6       30.14R
Scranton       CLOUDY    57  47  69 SE3       30.09R
$$

CTZ002-004>006-009-010-012-RIZ004-006-007-MAZ004-011-015-221200-
SOUTHERN NEW ENGLAND
 IN CT

CITY           SKY/WX    TMP DP  RH WIND       PRES   REMARKS
Bradley INTL   CLOUDY    53  43  68 S10       30.19F
Hartford       CLOUDY    52  46  80 S5        30.19F
Danbury        CLOUDY    49  45  86 SE6       30.19S
Wtrbury/Oxford CLOUDY    48  43  81 S6        30.20S
Bridgeport     CLOUDY    54  44  69 SE7       30.19S
Meriden        CLOUDY    51  46  83 S3        30.20S
New Haven      CLOUDY    52  47  83 E3        30.20F
Chester        CLOUDY    50  48  93 SE5       30.20S
Groton         LGT RAIN  53  49  86 SE8       30.21F
Wilimantic     CLOUDY    52  48  86 CALM      30.21F

 IN RI

CITY           SKY/WX    TMP DP  RH WIND       PRES   REMARKS
Providence     LGT RAIN  53  50  89 S6        30.23F
Block Island   LGT RAIN  52  48  86 S8        30.22F
Westerly       LGT RAIN  53  48  83 S7        30.22F
 IN MA

CITY           SKY/WX    TMP DP  RH WIND       PRES   REMARKS
Boston         LGT RAIN  53  43  68 SW7       30.23S
Worcester      CLOUDY    46  43  87 SW6       30.19S
Westfield      CLOUDY    52  46  80 S10       30.17F
Provincetown   CLOUDY    54  46  74 S7        30.24S
Nantucket      CLOUDY    53  34  48 S6        30.26R
$$

ANZ330-335-338-340-345-350-353-355-221200-
COASTAL MARINE OBSERVATIONS


STATION/POSITION TIME  SKY/WX   TEMP    WIND        PRES    VSBY  WAVE
                                AIR SEA DIR/SP/G                  HT/PER
                 (UTC)          (F)     (DEG/KT/KT) (MB)    (MI)  (FT/S)
NY HARB ENTRANCE 0950            56 56  120/ 10/ 12 1021.8          2/ 6
20 S FIRE ISLAND 1050            54 54  100/  8/ 10 1021.6          2/ 6
GREAT SOUTH BAY  1015            56 65  120/ 10/ 14   N/A
23 SSW MONTAUK P 0950            54 55              1023.7          2/ 8
15 E BARNEGAT LI 1030               56                N/A           3/ 6
HUDSON CANYON    0950            55 53  110/  8/ 10 1021.6          3/ 5
KINGS POINT      1042            54 57  100/  1/  3 1021.5
EXECUTION ROCKS  1045            54                   N/A
CENTRAL LI SOUND NOT AVBL
EASTERN LI SOUND NOT AVBL
ROBBINS REEF     1042            56     140/ 12/ 15 1021.8
$$


>>>>>>>>>>>>>>>>>>>>>>>>>>>> KEY <<<<<<<<<<<<<<<<<<<<<<<<<<<
>                                                          <
>     SKY/WX - Sky Condition/Present Weather               <
>     TMP    - Temperature in Fahrenheit                   <
>     DP     - Dew Point in Fahrenheit                     <
>     RH     - Relative Humidity in Percent                <
>     WIND   - Direction (from) and Speed in MPH           <
>     PRES   - Mean Sea Level Pressure (inches of Hg)      <
>     WCI    - Wind Chill Index                            <
>     VSB    - VISIBILITY IN MILES                         <
>     HX     - HEAT INDEX                                  <
>     TC     - TEMPERATURE IN CELSIUS                      <
>     VRB    - VARIABLE WIND DIRECTION                     <
>                                                          <
>>>>>>>>>>>>>>>>>>>>>>>>>>>> KEY <<<<<<<<<<<<<<<<<<<<<<<<<<<




USA.gov is the U.S. government's official web portal to all federal, state and local government web resources and services.